Вернуться в каталог

CZ-6A DEB

АктивенPO
NORAD 60796·DEBRIS·🇨🇳 China

Запущен Aug 6, 2024 с Taiyuan Satellite Launch Center

Loading…

Ближайшие Пролёты (ближайшие 24 часа)

TLE

СвежийSource: Space-Track

Эпоха: Sep 14, 2026, 23:30 UTC

1 60796U 24140FX  26257.97961436  .00000186  00000-0  10210-3 0  9998
2 60796  88.9542 263.0341 0112546 321.0306  38.2802 14.04749198107243

Отслеживайте CZ-6A DEB в реальном времени с AllMySat

Download on the App Store